Powrót do katalogu

COSMOS 312

AktywnyMilitariaLEO
NORAD 4254·PAYLOAD·🇷🇺 Russia

Wystrzelony Nov 24, 1969 z Plesetsk Cosmodrome

Loading…

Następne Przeloty (najbliższe 24 godziny)

TLE

ŚwieżeSource: Space-Track

Epoka: Sep 14, 2026, 14:05 UTC

1 04254U 69103A   26257.58722537 -.00000005  00000-0  33460-4 0  9991
2 04254  74.0207 298.8748 0022552 161.3434   4.2802 13.27213848751504

Śledź COSMOS 312 w czasie rzeczywistym z AllMySat

Download on the App Store